Change the Weather History Date:

Tuesday, January 15, 2013

  Actual Average (KBLU) Record (KBLU)
Temperature  
Mean Temperature 40 °F -  
Max Temperature 53 °F 44 °F 66 °F (1976)
Min Temperature 28 °F 33 °F 12 °F (1950)
Degree Days  
Heating Degree Days 24    
Moisture  
Dew Point 24 °F    
Average Humidity 54    
Maximum Humidity 80    
Minimum Humidity 26    
Precipitation  
Precipitation 0.00 in - - ()
Sea Level Pressure  
Sea Level Pressure 30.37 in    
Wind  
Wind Speed 1 mph (North)    
Max Wind Speed 6 mph    
Max Gust Speed -    
Visibility 10 miles    
Events      
Averages and records for this station are not official NWS values.
T = Trace of Precipitation, MM = Missing Value Source: NWS Daily Summary

Daily Weather History Graph

Daily Weather History Graph

Search for Another Location

Airport or City:

Trip Planner

Search our weather history database for the weather conditions in past years. The results will help you decide how hot, cold, wet, or windy it might be!

Date:

Astronomy

Jan. 15, 2013 Rise Set
Actual Time 7:21 AM PST 5:05 PM PST
Civil Twilight 6:52 AM PST 5:35 PM PST
Nautical Twilight 6:19 AM PST 6:08 PM PST
Astronomical Twilight 5:47 AM PST 6:40 PM PST
Moon 9:32 AM PST (1/15) 9:58 PM PST (1/15)
Length of Visible Light 10h 42m
Length of Day
9h 43m
Waxing Crescent, 20% of the Moon is Illuminated
Jan 15
Waxing Crescent
Jan 18
First Quarter
Jan 26
Full
Feb 3
Last Quarter
Feb 9
New

Hourly Weather History & Observations

Time (PST) Temp. Windchill Dew Point Humidity Pressure Visibility Wind Dir Wind Speed Gust Speed Precip Events Conditions
12:00 AM 37.4 °F - 21.2 °F 52% 30.32 in 10.0 mi Calm Calm - N/A   Clear
12:20 AM 37.4 °F - 23.0 °F 56% 30.32 in 10.0 mi Calm Calm - N/A   Clear
12:40 AM 37.4 °F - 23.0 °F 56% 30.32 in 10.0 mi Calm Calm - N/A   Clear
1:00 AM 37.4 °F 33.8 °F 24.8 °F 60% 30.33 in 10.0 mi North 4.6 mph - N/A   Clear
1:20 AM 41.0 °F 38.0 °F 24.8 °F 53% 30.32 in 10.0 mi NNE 4.6 mph - N/A   Clear
1:35 AM 41.0 °F - 24.8 °F 53% 30.33 in 10.0 mi Calm Calm - N/A   Clear
1:55 AM 41.0 °F - 24.8 °F 53% 30.34 in 10.0 mi Calm Calm - N/A   Clear
2:20 AM 41.0 °F 37.1 °F 26.6 °F 57% 30.35 in 10.0 mi NNE 5.8 mph - N/A   Clear
2:40 AM 42.8 °F - 26.6 °F 53% 30.34 in 10.0 mi Calm Calm - N/A   Clear
3:00 AM 42.8 °F - 26.6 °F 53% 30.34 in 10.0 mi Calm Calm - N/A   Clear
3:20 AM 35.6 °F - 24.8 °F 65% 30.35 in 10.0 mi Calm Calm - N/A   Clear
3:40 AM 37.4 °F 33.8 °F 26.6 °F 65% 30.34 in 10.0 mi NE 4.6 mph - N/A   Clear
4:00 AM 35.6 °F - 24.8 °F 65% 30.34 in 10.0 mi Calm Calm - N/A   Clear
4:20 AM 33.8 °F - 23.0 °F 65% 30.35 in 10.0 mi Calm Calm - N/A   Clear
4:40 AM 32.0 °F - 21.2 °F 64% 30.35 in 10.0 mi Calm Calm - N/A   Clear
5:00 AM 32.0 °F - 23.0 °F 69% 30.35 in 10.0 mi Calm Calm - N/A   Clear
5:20 AM 32.0 °F - 23.0 °F 69% 30.35 in 10.0 mi Calm Calm - N/A   Clear
5:40 AM 32.0 °F 27.5 °F 23.0 °F 69% 30.35 in 10.0 mi NNE 4.6 mph - N/A   Clear
6:00 AM 32.0 °F - 23.0 °F 69% 30.36 in 10.0 mi Calm Calm - N/A   Clear
6:15 AM 30.2 °F - 23.0 °F 75% 30.37 in 10.0 mi Calm Calm - N/A   Clear
6:40 AM 28.4 °F - 23.0 °F 80% 30.37 in 10.0 mi Calm Calm - N/A   Clear
7:00 AM 32.0 °F 27.5 °F 23.0 °F 69% 30.37 in 10.0 mi North 4.6 mph - N/A   Clear
7:20 AM 32.0 °F 27.5 °F 23.0 °F 69% 30.38 in 10.0 mi North 4.6 mph - N/A   Clear
7:40 AM 30.2 °F - 24.8 °F 80% 30.38 in 10.0 mi Calm Calm - N/A   Clear
8:00 AM 30.2 °F - 24.8 °F 80% 30.39 in 10.0 mi Calm Calm - N/A   Clear
8:20 AM 32.0 °F - 24.8 °F 75% 30.39 in 10.0 mi Calm Calm - N/A   Clear
8:35 AM 32.0 °F - 23.0 °F 69% 30.40 in 10.0 mi Calm Calm - N/A   Clear
9:00 AM 32.0 °F - 23.0 °F 69% 30.40 in 10.0 mi Calm Calm - N/A   Clear
9:20 AM 32.0 °F - 23.0 °F 69% 30.41 in 10.0 mi Calm Calm - N/A   Clear
9:40 AM 35.6 °F - 23.0 °F 60% 30.41 in 10.0 mi Calm Calm - N/A   Clear
10:00 AM 35.6 °F - 23.0 °F 60% 30.41 in 10.0 mi Calm Calm - N/A   Clear
10:40 AM 37.4 °F - 21.2 °F 52% 30.41 in 10.0 mi Calm Calm - N/A   Clear
11:00 AM 39.2 °F 37.0 °F 21.2 °F 49% 30.40 in 10.0 mi NNW 3.5 mph - N/A   Clear
11:40 AM 42.8 °F 41.1 °F 23.0 °F 46% 30.39 in 10.0 mi NW 3.5 mph - N/A   Clear
12:00 PM 44.6 °F 42.2 °F 23.0 °F 43% 30.38 in 10.0 mi WNW 4.6 mph - N/A   Clear
12:20 PM 44.6 °F 42.2 °F 24.8 °F 46% 30.37 in 9.0 mi WNW 4.6 mph - N/A   Partly Cloudy
12:40 PM 44.6 °F 43.1 °F 24.8 °F 46% 30.37 in 10.0 mi WNW 3.5 mph - N/A   Clear
1:00 PM 44.6 °F 42.2 °F 24.8 °F 46% 30.36 in 10.0 mi WNW 4.6 mph - N/A   Clear
1:20 PM 44.6 °F 43.1 °F 24.8 °F 46% 30.36 in 10.0 mi West 3.5 mph - N/A   Clear
1:40 PM 46.4 °F - 24.8 °F 43% 30.36 in 10.0 mi Calm Calm - N/A   Clear
2:20 PM 48.2 °F - 24.8 °F 40% 30.37 in 10.0 mi Calm Calm - N/A   Clear
2:40 PM 48.2 °F - 26.6 °F 43% 30.36 in 10.0 mi Calm Calm - N/A   Clear
3:00 PM 48.2 °F - 26.6 °F 43% 30.36 in 10.0 mi Calm Calm - N/A   Clear
3:20 PM 48.2 °F - 26.6 °F 43% 30.37 in 10.0 mi WNW 4.6 mph - N/A   Clear
3:40 PM 48.2 °F - 26.6 °F 43% 30.37 in 10.0 mi Calm Calm - N/A   Clear
3:55 PM 48.2 °F - 26.6 °F 43% 30.37 in 10.0 mi WNW 3.5 mph - N/A   Clear
4:15 PM 46.4 °F 45.2 °F 28.4 °F 50% 30.37 in 10.0 mi West 3.5 mph - N/A   Clear
4:40 PM 44.6 °F - 28.4 °F 53% 30.38 in 10.0 mi Calm Calm - N/A   Clear
5:00 PM 42.8 °F - 28.4 °F 57% 30.38 in 10.0 mi Calm Calm - N/A   Clear
5:20 PM 41.0 °F - 28.4 °F 61% 30.38 in 10.0 mi Calm Calm - N/A   Clear
5:40 PM 39.2 °F 35.9 °F 30.2 °F 70% 30.38 in 10.0 mi East 4.6 mph - N/A   Clear
6:00 PM 39.2 °F - 28.4 °F 65% 30.38 in 10.0 mi Calm Calm - N/A   Clear
6:20 PM 39.2 °F - 28.4 °F 65% 30.38 in 10.0 mi Calm Calm - N/A   Clear
6:40 PM 39.2 °F - 28.4 °F 65% 30.38 in 10.0 mi Calm Calm - N/A   Clear
7:00 PM 41.0 °F - 28.4 °F 61% 30.38 in 10.0 mi Calm Calm - N/A   Clear
7:20 PM 46.4 °F 44.3 °F 26.6 °F 46% 30.39 in 10.0 mi NE 4.6 mph - N/A   Clear
7:40 PM 44.6 °F 42.2 °F 26.6 °F 49% 30.39 in 10.0 mi NNE 4.6 mph - N/A   Clear
8:00 PM 48.2 °F - 23.0 °F 37% 30.39 in 10.0 mi Calm Calm - N/A   Clear
8:20 PM 50.0 °F - 23.0 °F 35% 30.39 in 10.0 mi Calm Calm - N/A   Clear
8:40 PM 48.2 °F - 23.0 °F 37% 30.39 in 10.0 mi Calm Calm - N/A   Clear
9:00 PM 48.2 °F - 23.0 °F 37% 30.39 in 10.0 mi Calm Calm - N/A   Clear
9:20 PM 50.0 °F - 23.0 °F 35% 30.39 in 10.0 mi East 5.8 mph - N/A   Clear
9:35 PM 51.8 °F - 21.2 °F 30% 30.39 in 10.0 mi ESE 5.8 mph - N/A   Clear
10:00 PM 51.8 °F - 21.2 °F 30% 30.39 in 10.0 mi ENE 5.8 mph - N/A   Clear
10:20 PM 53.6 °F - 19.4 °F 26% 30.39 in 10.0 mi Calm Calm - N/A   Clear
11:00 PM 50.0 °F - 19.4 °F 30% 30.39 in 10.0 mi Calm Calm - N/A   Clear
11:20 PM 51.8 °F - 17.6 °F 26% 30.40 in 10.0 mi Calm Calm - N/A   Clear
11:40 PM 50.0 °F - 19.4 °F 30% 30.40 in 10.0 mi Calm Calm - N/A   Clear